Location: Gajan
(43.0218°N, 1.1244°E)
Time: 15:35:30
(UTC+00:00)

Cosmos 1980 - Pass Details

Date: 22 April 2021
Orbit: 838 x 848 km, 71.0° (Epoch: 12 May)

Event Time Altitude Azimuth Distance (km) Brightness Sun altitude
Rises 19:31:22 0° 339° (NNW) 3,418 7.6 -8.5°
Reaches altitude 10° 19:33:56 10° 346° (NNW) 2,480 6.8 -8.9°
Maximum altitude 19:39:24 46° 59° (ENE) 1,126 4.2 -9.8°
Enters shadow 19:44:17 13° 130° (SE) 2,267 5.3 -10.6°
